Wetbulb
49.05 48.98 49.61 48.90 47.75 47.69 47.90 49.50 48.02 50.94 50.35 54.91 58.79 58.81 58.80 58.93 60.56 61.79 64.94 66.50 67.17 68.58 70.14 70.91 71.56 72.52 73.08 73.37 74.52 75.41 75.56 75.33 75.38 76.16 76.17 76.08 75.83 75.88 76.30 76.40 76.25 76.45 76.16 76.51
46.98 48.77 49.23 47.76 49.36 48.96 49.19 49.77 49.76 50.59 50.92 56.06 58.58 58.64 57.96 60.83 60.23 61.72 64.12 65.52 67.68 68.19 68.70 70.12 70.94 71.56 72.52 73.10 74.00 74.88 74.95 74.84 75.17 75.44 75.36 75.36 75.54 75.79 76.27 76.45 76.53 76.71 76.48 76.60
44.07 47.72 48.03 45.23 49.00 49.54 50.02 51.32 50.72 48.27 53.10 56.27 55.58 56.86 58.84 61.09 61.36 61.53 63.16 65.52 66.81 68.72 69.68 70.19 70.29 71.84 71.78 72.74 73.54 74.45 74.56 74.50 74.62 75.05 75.03 75.35 75.61 75.52 75.76 76.19 76.93 76.50 75.70 73.41
45.41 46.95 39.31 48.98 53.00 52.07 50.55 51.65 51.92 52.30 52.55 56.85 56.93 58.57 58.64 60.51 60.71 62.11 63.59 65.61 68.20 67.84 69.53 70.63 70.11 71.13 71.85 71.94 73.05 73.03 73.24 73.39 73.96 74.55 74.51 75.15 75.39 75.33 76.19 76.58 75.86 74.82 72.32 72.42
43.47 43.43 46.60 48.07 50.60 50.77 51.07 52.61 56.54 55.94 57.44 58.52 59.55 59.92 58.43 59.67 62.08 63.81 65.85 68.51 69.34 67.81 69.16 69.99 69.50 70.85 71.82 71.21 72.07 71.95 71.96 72.39 72.94 73.86 74.17 74.76 75.18 75.60 76.33 75.36 74.49 72.28 72.92 72.50
44.03 42.31 40.49 46.55 48.58 51.56 53.01 49.72 54.33 56.34 57.32 58.05 59.15 55.18 57.16 61.02 62.08 62.24 65.39 66.49 67.08 66.38 67.93 69.11 71.01 70.74 70.66 70.53 70.95 71.21 71.99 72.39 73.70 74.40 74.65 75.09 76.05 75.29 76.35 73.69 72.06 71.67 70.45 70.77
44.70 44.54 45.27 46.39 48.83 50.93 47.25 48.52 51.93 53.31 55.32 56.96 58.24 59.34 62.45 63.74 65.08 66.73 65.86 64.16 65.71 67.08 69.09 70.95 71.14 70.15 70.44 70.61 71.02 72.32 72.69 73.42 74.73 75.66 76.09 76.70 75.29 74.05 72.62 70.95 68.40 67.00 66.82 70.23
43.86 44.93 41.78 47.61 48.47 48.29 47.39 50.78 51.27 52.34 53.65 54.66 57.48 60.03 62.53 64.93 67.13 66.51 64.66 64.96 66.65 68.79 71.35 73.19 72.28 72.15 71.49 72.12 73.40 74.61 75.46 75.17 74.98 75.26 74.58 74.30 73.19 71.11 68.96 67.41 66.04 65.33 65.58 66.09
44.93 43.21 47.11 48.40 46.84 48.49 49.42 49.32 50.60 51.97 54.06 57.12 59.56 62.27 64.27 66.36 68.69 67.28 67.08 69.56 69.63 71.27 73.55 74.18 74.58 75.30 73.86 72.95 75.23 75.46 75.46 74.64 74.27 74.11 73.56 72.93 70.09 68.19 66.91 66.92 64.89 64.18 65.16 62.34
46.07 46.05 46.04 47.21 48.17 47.93 49.55 48.26 50.02 52.37 55.39 58.23 59.62 64.31 66.94 70.00 69.19 70.13 71.19 70.91 72.19 73.68 74.11 74.54 76.04 76.02 73.93 74.16 76.39 75.19 73.56 72.63 71.46 70.40 69.73 70.00 68.96 67.77 66.55 65.49 64.75 64.94 63.28 61.65
43.00 44.50 48.88 49.17 47.45 47.32 48.69 49.11 50.32 52.22 56.21 57.96 61.33 65.98 67.81 68.37 68.71 70.55 71.95 72.71 73.59 74.27 74.07 72.94 73.60 72.20 73.50 73.97 74.23 71.47 69.45 67.68 66.31 65.28 62.28 57.16 53.77 61.38 67.72 68.74 66.63 66.82 66.49 65.34
40.71 43.31 43.85 45.38 47.04 47.88 47.44 47.74 49.95 50.61 54.41 56.52 57.96 61.95 68.91 67.55 68.30 68.90 72.03 73.32 73.49 73.46 72.59 71.93 72.13 72.23 72.84 73.15 72.63 70.12 67.85 66.29 65.02 64.84 63.65 61.95 60.81 56.90 49.00 50.01 48.86 49.41 52.82 61.11
41.67 44.09 45.08 46.23 47.38 48.34 46.98 48.50 50.29 51.77 53.64 53.70 57.40 58.39 66.64 69.23 68.03 65.74 71.01 72.44 72.22 72.24 72.23 72.96 72.57 71.62 72.39 73.08 72.56 71.66 68.24 66.12 65.65 66.25 65.90 65.21 65.90 66.13 60.09 52.64 45.77 44.26 44.49 47.01
45.77 44.90 44.04 45.69 44.84 47.26 48.37 49.64 50.43 51.00 52.70 53.93 54.69 57.99 61.35 67.91 69.58 69.16 70.10 71.06 71.80 72.05 72.05 72.32 72.52 72.45 73.07 72.91 71.32 70.51 69.46 60.12 68.12 67.86 66.01 67.43 69.71 68.43 67.28 66.32 64.16 61.82 47.30 48.32
44.33 45.20 45.23 46.52 47.35 47.75 49.17 49.50 48.34 48.67 50.74 52.12 53.74 55.86 57.50 62.01 68.12 67.20 69.14 71.21 71.81 71.39 71.20 71.76 71.51 71.76 72.82 72.60 70.91 69.34 68.64 68.42 68.38 67.71 69.33 68.48 69.26 68.93 68.67 67.59 65.56 61.57 56.20 47.57
44.56 45.20 45.35 45.33 46.12 47.50 48.31 48.28 47.59 48.61 50.29 51.20 52.07 53.74 57.26 62.15 65.81 68.83 69.16 70.31 70.54 69.73 70.53 70.83 70.32 70.84 72.32 72.10 70.49 69.84 69.01 62.75 66.12 69.23 67.66 68.22 67.99 67.13 66.88 65.76 62.07 61.25 61.70 57.18
42.60 42.23 44.05 44.56 45.65 46.90 47.32 47.80 48.31 48.97 49.56 50.10 51.73 53.54 57.10 60.82 64.49 68.14 69.92 71.68 73.14 71.22 72.46 71.41 69.58 70.18 70.97 70.94 69.12 68.89 68.72 66.84 63.23 68.02 67.54 67.08 66.70 66.31 65.39 64.95 64.94 64.51 61.86 56.07
48.84 46.46 46.18 46.18 45.88 46.47 47.01 47.94 48.56 49.26 49.51 50.68 51.77 53.31 55.82 58.11 62.12 65.64 68.00 69.26 70.44 70.76 72.69 72.69 71.99 70.91 68.88 68.23 68.55 69.16 68.50 67.30 67.64 67.34 66.81 65.81 65.34 64.10 63.26 63.28 63.44 62.59 59.40 52.71
51.14 49.54 46.84 46.52 46.92 46.92 47.10 47.77 48.64 49.68 50.32 50.66 50.69 51.32 54.56 58.92 63.48 64.60 66.59 67.67 69.62 70.00 69.40 70.43 64.51 69.59 71.26 69.72 68.85 69.72 68.78 68.18 67.19 66.32 65.80 59.19 61.70 62.03 61.69 61.67 61.88 61.35 59.37 55.18
50.02 50.87 49.78 47.90 47.94 47.06 46.96 48.04 49.18 49.49 50.48 50.86 51.53 51.85 54.15 58.60 63.43 64.98 64.62 67.58 69.77 71.17 69.08 68.13 68.82 71.33 71.56 68.47 65.94 69.85 68.93 68.13 67.10 66.08 63.75 63.68 62.32 61.28 61.12 55.46 59.05 58.44 58.03 57.38
48.79 49.75 49.50 49.53 49.66 49.11 48.10 48.57 48.88 48.93 50.84 51.38 51.42 52.26 55.93 60.54 63.51 65.21 63.24 64.77 68.64 65.76 67.55 62.54 68.96 69.44 69.59 67.72 68.35 69.85 68.88 67.70 66.55 65.16 62.65 62.61 61.14 60.97 59.95 59.16 58.40 57.98 57.93 57.32
47.86 48.75 49.37 49.98 50.24 50.58 51.77 50.84 50.46 50.46 51.36 51.93 52.23 53.48 57.40 60.01 63.04 64.26 65.96 67.05 68.93 56.04 64.67 65.93 66.52 63.53 67.09 61.37 70.07 69.40 67.77 66.61 65.54 64.69 63.66 63.49 62.19 61.25 60.38 59.43 58.35 57.82 57.91 57.48
48.45 50.52 49.75 49.79 49.99 50.76 51.83 52.23 52.52 52.80 52.44 53.57 54.25 55.59 56.00 59.34 63.31 63.41 63.17 66.02 66.51 59.94 65.85 66.09 60.72 55.76 55.71 65.54 65.95 66.04 65.99 65.90 65.79 65.39 64.94 64.49 64.05 63.44 62.08 60.32 58.68 57.42 57.23 57.33
44.07 46.75 51.82 53.49 52.42 51.78 50.63 51.96 52.11 52.40 53.89 56.49 57.21 59.30 60.49 61.57 63.22 65.31 66.80 60.87 56.99 57.43 64.64 64.45 59.21 53.18 53.70 64.56 64.83 65.10 65.44 65.99 66.25 66.24 65.96 57.32 65.50 65.20 63.90 61.99 59.50 58.64 57.86 55.59
44.30 45.74 46.32 49.92 53.36 54.37 55.97 56.25 56.13 57.11 57.25 57.30 57.76 59.48 61.85 63.72 63.90 65.50 65.63 65.32 55.76 58.46 64.78 54.28 52.82 52.50 61.11 64.35 64.19 63.95 64.17 64.50 65.28 66.31 66.23 65.78 65.72 65.19 64.76 62.71 60.77 58.85 57.58 57.47
43.90 44.83 45.95 48.15 49.67 51.52 54.45 54.92 55.54 55.04 54.92 54.39 55.63 56.78 57.90 59.17 60.62 62.72 64.60 61.27 64.71 58.55 64.95 64.71 62.76 61.21 63.38 62.63 62.05 62.73 63.81 64.10 63.03 63.75 63.69 65.02 65.18 64.37 63.87 63.05 61.61 59.58 58.76 58.21
42.88 43.13 46.29 47.00 48.86 50.47 52.58 53.00 54.30 54.47 54.35 54.67 56.00 56.98 56.94 57.14 56.86 57.92 56.34 60.75 62.44 62.22 62.49 62.22 62.48 60.54 63.57 63.23 62.75 63.72 64.17 63.88 59.36 63.59 63.28 63.50 63.00 63.55 63.47 62.70 61.56 60.04 58.94 57.78
MSLP
997.21 996.88 996.92 997.02 997.35 997.72 997.56 997.47 997.08 996.69 997.00 996.60 996.69 996.73 996.79 997.15 997.67 998.04 998.38 998.75 999.18 999.75 1000.14 1000.83 1001.49 1002.00 1002.58 1003.05 1003.71 1004.29 1004.81 1005.17 1005.25 1005.86 1006.35 1006.79 1007.42 1007.92 1008.34 1008.92 1009.57 1010.11 1010.42 1010.87
997.57 997.25 996.91 996.70 996.86 997.07 997.27 997.54 997.60 997.33 996.75 997.00 996.70 997.03 997.10 996.68 997.12 997.13 997.58 998.14 998.45 999.15 999.90 1000.28 1000.59 1000.96 1001.73 1002.29 1002.81 1003.52 1003.97 1004.25 1005.03 1005.51 1006.03 1006.54 1006.99 1007.43 1007.89 1008.40 1009.11 1009.72 1010.09 1010.42
997.83 997.80 997.41 996.70 996.53 996.99 997.49 997.63 997.69 997.34 997.03 997.47 997.18 997.09 996.94 996.60 996.71 996.69 996.61 997.10 997.61 998.09 998.50 999.06 999.53 1000.06 1000.63 1001.59 1002.60 1003.05 1003.27 1003.77 1004.47 1005.12 1005.73 1006.19 1006.68 1007.04 1007.41 1007.95 1008.53 1009.13 1009.73 1010.53
998.25 998.52 997.45 996.73 997.08 997.77 998.20 998.57 998.64 998.56 998.76 998.67 998.17 997.52 997.20 996.95 997.01 996.69 996.35 996.39 996.72 997.39 997.64 998.08 998.92 999.71 1000.53 1001.32 1001.90 1002.23 1002.73 1003.44 1004.15 1004.72 1005.30 1005.83 1006.24 1006.65 1007.10 1007.68 1008.28 1009.03 1009.98 1010.44
999.00 998.39 998.35 998.55 999.51 999.31 999.18 1000.51 1000.87 1000.35 1000.24 999.96 999.40 998.57 997.43 996.90 996.56 996.43 996.11 996.04 996.11 996.84 997.39 997.98 998.56 999.20 999.90 1000.57 1001.12 1001.80 1002.40 1003.08 1003.67 1004.29 1004.92 1005.59 1006.12 1006.59 1006.94 1007.42 1008.21 1009.15 1009.83 1010.40
1000.39 999.37 999.69 1001.38 1001.97 1002.09 1001.76 1001.88 1002.63 1002.28 1001.77 1001.17 1000.25 998.87 997.44 997.60 997.62 996.95 996.31 996.04 996.37 996.75 997.23 997.45 997.91 998.79 999.45 1000.18 1000.98 1001.50 1002.05 1002.77 1003.45 1003.96 1004.64 1005.37 1005.99 1006.55 1007.01 1007.61 1008.41 1009.35 1010.21 1010.93
1001.28 1000.61 1002.07 1003.44 1003.24 1003.05 1003.16 1004.33 1004.19 1003.79 1003.16 1002.31 1001.37 999.52 998.83 998.49 997.69 997.42 996.73 996.14 996.43 996.81 997.04 997.41 998.10 998.83 999.57 1000.16 1000.90 1001.45 1002.21 1002.85 1003.35 1004.13 1004.83 1005.47 1006.25 1007.02 1007.71 1008.33 1008.97 1009.86 1010.71 1011.45
1003.02 1002.57 1004.03 1004.44 1003.83 1004.04 1005.79 1005.39 1005.05 1004.56 1003.99 1003.13 1002.11 1000.66 999.68 998.84 998.00 997.20 996.29 996.07 996.32 996.93 997.23 997.67 998.37 999.06 999.90 1000.39 1001.14 1001.87 1002.41 1002.73 1003.84 1004.65 1005.20 1005.96 1006.77 1007.65 1008.37 1008.96 1009.60 1010.41 1011.11 1012.04
1005.10 1005.22 1006.16 1006.06 1006.30 1006.75 1006.61 1006.04 1005.53 1004.91 1004.19 1003.30 1002.04 1000.83 999.74 998.84 997.80 996.77 996.34 996.22 996.47 996.97 997.65 998.12 998.71 999.22 1000.14 1001.06 1001.59 1001.81 1002.17 1003.45 1004.38 1005.09 1005.73 1006.52 1007.30 1008.19 1008.93 1009.48 1010.17 1011.01 1011.34 1012.28
1005.88 1006.56 1006.69 1006.85 1006.91 1007.02 1006.92 1006.49 1005.80 1005.02 1004.09 1003.15 1001.91 1000.70 999.73 998.47 997.73 997.31 996.77 996.75 996.72 997.15 997.71 998.52 999.08 999.77 1000.69 1000.93 1001.17 1001.75 1002.99 1004.05 1004.95 1005.66 1006.53 1007.32 1007.96 1008.85 1009.36 1009.81 1010.57 1011.06 1011.86 1012.69
1006.88 1006.97 1006.79 1007.02 1007.13 1007.13 1006.82 1006.44 1005.79 1005.07 1004.21 1003.20 1002.20 1000.89 999.65 998.68 998.40 997.99 997.41 997.23 997.36 997.73 998.48 999.23 999.79 1000.38 1000.76 1001.08 1001.60 1002.69 1003.85 1004.83 1005.74 1006.63 1007.36 1008.28 1009.18 1009.97 1009.92 1010.03 1010.33 1010.69 1011.54 1012.19
1007.39 1007.95 1007.84 1007.45 1007.41 1007.13 1006.67 1006.17 1005.60 1004.99 1003.89 1003.17 1002.33 1000.93 999.64 999.37 999.01 998.74 998.18 997.98 997.95 998.45 998.95 999.60 1000.14 1000.66 1001.22 1001.85 1002.49 1003.33 1004.48 1005.51 1006.26 1006.90 1007.80 1008.68 1009.47 1010.47 1011.13 1011.08 1011.12 1011.52 1012.01 1012.29
1008.04 1008.28 1008.13 1007.73 1007.25 1006.90 1006.69 1006.20 1005.68 1005.13 1004.53 1003.67 1002.36 1001.61 1000.57 999.82 999.57 999.35 999.00 998.95 998.75 998.80 999.22 999.77 1000.39 1001.16 1001.92 1002.51 1003.04 1003.69 1004.56 1005.80 1006.59 1007.00 1007.72 1008.29 1009.01 1009.66 1011.00 1012.48 1012.45 1012.88 1013.24 1013.64
1008.11 1008.16 1007.48 1007.29 1006.85 1006.67 1006.48 1005.95 1005.63 1005.12 1004.63 1003.95 1003.14 1002.44 1001.63 1000.55 999.98 999.85 999.59 999.50 999.45 999.50 999.86 1000.20 1000.77 1001.49 1002.20 1002.73 1003.49 1004.32 1005.07 1005.75 1006.27 1006.99 1007.55 1007.93 1008.36 1009.27 1010.20 1011.08 1012.13 1013.42 1014.39 1014.61
1008.09 1007.84 1007.49 1007.15 1006.79 1006.33 1006.06 1005.68 1005.25 1004.84 1004.33 1003.89 1003.64 1003.04 1002.44 1001.69 1001.03 1001.00 1000.53 1000.11 1000.04 1000.12 1000.51 1000.91 1001.37 1002.05 1002.50 1003.00 1003.82 1004.60 1005.32 1005.93 1006.38 1007.05 1007.35 1007.73 1008.40 1009.10 1009.82 1010.85 1011.90 1013.23 1014.54 1015.61
1007.79 1007.53 1007.22 1007.01 1006.52 1005.97 1005.69 1005.40 1005.03 1004.83 1004.73 1004.48 1004.26 1003.71 1003.17 1002.52 1001.64 1001.24 1000.86 1000.68 1000.52 1000.61 1001.05 1001.46 1001.99 1002.52 1002.80 1003.23 1003.95 1004.79 1005.46 1005.94 1006.28 1007.00 1007.74 1008.17 1008.71 1009.33 1010.05 1011.03 1012.31 1013.02 1013.62 1014.76
1007.14 1006.71 1006.70 1006.53 1006.34 1005.84 1005.50 1005.37 1005.19 1005.06 1005.01 1004.85 1004.65 1004.45 1003.82 1003.08 1002.24 1001.57 1001.17 1000.86 1000.72 1001.03 1001.25 1001.73 1002.23 1002.76 1003.07 1003.45 1003.99 1004.71 1005.43 1006.37 1006.58 1007.21 1007.81 1008.41 1009.00 1009.57 1010.35 1011.06 1011.81 1012.57 1013.41 1014.37
1006.47 1006.17 1006.01 1005.94 1005.81 1005.49 1005.21 1004.96 1004.86 1004.86 1004.93 1004.96 1004.82 1004.61 1004.16 1003.62 1002.78 1002.31 1001.81 1001.55 1001.34 1001.47 1001.51 1001.91 1002.42 1002.85 1003.38 1003.85 1004.27 1004.69 1005.26 1006.16 1006.75 1007.17 1007.90 1008.61 1009.19 1009.88 1010.49 1011.01 1011.64 1012.40 1013.37 1014.75
1005.32 1005.09 1005.13 1005.21 1005.29 1005.22 1005.03 1004.55 1004.35 1004.43 1004.53 1004.73 1004.66 1004.35 1004.21 1003.57 1002.78 1002.54 1001.97 1001.71 1001.44 1001.58 1001.99 1002.53 1002.95 1002.92 1003.18 1003.67 1004.05 1004.39 1005.11 1005.87 1006.55 1007.27 1007.79 1008.63 1009.34 1009.93 1010.45 1010.98 1011.61 1012.40 1013.19 1014.12
1003.93 1004.22 1004.51 1004.73 1004.95 1005.01 1004.83 1004.63 1004.19 1003.82 1003.81 1004.11 1004.31 1004.19 1003.79 1003.42 1002.59 1002.15 1002.10 1001.50 1001.40 1001.26 1001.98 1002.54 1003.15 1003.07 1003.35 1003.93 1003.89 1004.07 1004.91 1005.63 1006.34 1007.01 1007.84 1008.33 1008.93 1009.51 1010.12 1010.78 1011.39 1012.22 1012.99 1013.66
1003.50 1003.53 1003.88 1004.22 1004.45 1004.69 1004.67 1004.58 1004.23 1003.63 1003.23 1003.41 1003.28 1003.43 1003.22 1002.72 1002.50 1002.15 1001.86 1001.60 1001.46 1002.16 1002.04 1002.34 1002.58 1002.86 1003.42 1003.96 1003.94 1003.97 1004.61 1005.31 1006.08 1006.95 1007.83 1008.25 1009.02 1009.45 1010.01 1010.53 1011.19 1011.80 1012.55 1013.21
1004.23 1003.85 1003.81 1003.89 1003.92 1004.00 1004.16 1004.25 1003.93 1003.55 1003.18 1002.73 1002.63 1002.53 1002.45 1002.15 1001.70 1001.57 1001.65 1001.38 1001.34 1002.05 1002.15 1002.20 1002.32 1002.85 1003.00 1003.88 1003.51 1003.97 1004.57 1005.19 1005.79 1006.63 1007.39 1008.03 1008.73 1009.24 1009.73 1010.29 1010.90 1011.50 1012.16 1012.85
1004.95 1004.15 1003.86 1003.72 1003.59 1003.49 1003.49 1003.52 1003.45 1003.26 1002.70 1002.23 1002.06 1001.89 1001.77 1001.57 1001.37 1001.12 1000.60 1001.04 1001.27 1001.95 1001.85 1001.97 1002.22 1003.18 1003.59 1003.36 1003.43 1003.73 1004.16 1004.77 1005.33 1006.01 1006.73 1007.43 1008.09 1008.70 1009.30 1010.09 1010.71 1011.28 1011.87 1012.53
1006.24 1005.09 1003.95 1003.31 1003.01 1002.83 1002.54 1002.40 1002.30 1002.12 1001.79 1001.58 1001.40 1001.21 1001.12 1000.95 1000.84 1000.84 1000.73 1000.81 1001.11 1001.59 1001.68 1001.81 1002.44 1003.29 1003.52 1002.86 1003.17 1003.47 1003.82 1004.19 1004.72 1005.32 1005.94 1006.65 1007.27 1007.89 1008.63 1009.52 1010.21 1010.78 1011.59 1012.38
1007.08 1006.09 1005.11 1003.99 1003.04 1002.55 1001.87 1001.66 1001.65 1001.66 1001.32 1001.27 1001.21 1000.81 1000.55 1000.49 1000.43 1000.35 1000.51 1000.59 1000.71 1001.34 1001.65 1002.03 1002.45 1003.11 1003.01 1002.49 1002.71 1002.98 1003.32 1003.59 1003.83 1004.32 1005.11 1005.86 1006.44 1007.23 1007.97 1008.84 1009.51 1010.18 1010.92 1011.77
1007.95 1006.87 1005.54 1004.94 1004.07 1003.22 1002.64 1002.40 1002.18 1002.18 1001.69 1001.49 1001.45 1001.02 1000.67 1000.53 1000.47 1000.49 1000.33 1000.56 1000.81 1001.17 1001.20 1001.30 1001.74 1002.43 1002.16 1002.05 1002.20 1002.37 1002.67 1003.03 1003.57 1003.93 1004.40 1005.17 1005.70 1006.55 1007.39 1008.15 1008.89 1009.72 1010.23 1010.97
1008.71 1007.90 1006.77 1005.61 1004.64 1003.71 1003.55 1003.12 1003.05 1002.63 1002.54 1002.43 1002.11 1001.91 1001.51 1001.09 1000.96 1000.77 1000.68 1000.79 1001.15 1001.55 1001.71 1001.69 1001.50 1001.76 1001.54 1001.62 1001.82 1002.03 1002.23 1002.60 1003.22 1003.43 1004.15 1004.97 1005.60 1006.16 1006.79 1007.31 1008.10 1009.04 1009.71 1010.31
Wind_Speed
13 7 17 17 21 18 20 17 15 16 15 14 10 7 7 6 2 2 6 10 13 14 14 14 14 14 14 14 14 15 15 16 17 14 15 15 13 13 13 11 9 10 10 9
17 14 13 17 17 20 22 21 20 18 17 12 11 7 10 14 7 9 6 11 13 14 14 15 16 16 14 15 15 14 15 15 13 13 13 13 13 12 11 10 9 8 8 8
20 14 17 17 16 17 16 17 18 18 17 8 8 10 11 13 9 11 11 5 9 15 16 15 17 14 16 13 12 13 14 13 12 12 11 11 10 10 10 9 7 7 6 8
11 12 20 12 18 14 14 7 12 7 0 4 9 11 12 11 8 11 12 10 8 9 13 14 12 12 11 12 14 14 13 11 10 10 10 9 9 9 8 6 6 8 9 9
7 15 3 7 6 5 12 6 6 3 5 7 9 6 12 13 12 14 13 9 8 4 8 10 11 12 13 13 12 11 11 10 10 10 9 8 8 7 7 7 9 8 9 10
4 16 14 7 11 7 4 11 9 9 8 10 9 5 10 10 9 13 12 10 8 4 7 10 10 11 12 11 10 10 10 9 9 9 8 8 8 8 7 9 10 8 10 10
2 5 6 12 9 4 12 3 11 10 10 10 6 8 16 20 19 15 14 12 7 4 5 7 9 11 11 11 10 8 8 10 9 8 8 8 8 8 8 9 11 12 12 11
2 3 6 17 4 1 7 7 9 11 11 14 15 19 18 18 17 15 11 7 7 6 6 7 10 11 12 12 12 12 13 14 12 11 8 9 10 9 10 11 13 12 12 10
6 7 7 9 13 8 7 9 12 13 14 14 16 16 17 17 13 8 4 5 9 11 11 11 11 14 15 13 14 15 16 15 13 12 10 10 11 10 9 10 10 10 10 10
5 5 3 7 9 12 8 13 14 14 15 15 17 15 14 9 5 3 3 6 10 14 14 13 12 13 14 16 15 17 16 13 11 11 11 9 8 8 9 9 9 10 10 10
4 4 4 6 11 14 11 14 15 16 15 17 16 12 9 6 4 1 5 8 11 13 13 14 14 14 13 15 15 14 12 11 11 9 11 10 9 5 8 7 7 12 11 11
3 4 4 5 13 14 14 17 17 18 19 19 17 15 10 5 2 2 4 8 11 13 15 14 14 14 12 12 14 15 13 10 9 10 10 9 9 8 18 11 11 11 9 10
3 2 7 13 12 8 15 16 16 15 15 19 18 16 14 7 6 4 6 7 10 14 15 14 14 14 12 12 14 15 14 13 10 10 10 10 10 11 10 10 17 16 13 10
7 10 14 9 12 17 14 14 13 14 12 14 18 15 15 11 7 6 4 7 10 13 14 13 14 12 12 13 14 14 12 13 11 11 9 9 11 11 10 11 11 8 12 7
14 15 16 15 14 14 12 13 15 13 14 15 16 17 16 14 9 4 2 6 8 10 10 12 12 11 13 13 15 15 13 10 10 10 9 10 10 11 10 11 10 10 8 8
15 15 16 15 16 16 14 13 13 12 13 13 14 17 15 14 11 4 3 5 9 9 10 11 11 11 13 14 15 11 10 11 11 10 10 9 9 9 9 10 10 9 10 11
21 19 16 15 14 15 14 13 12 11 13 13 13 14 15 14 10 6 2 1 4 8 11 12 11 11 12 14 13 10 11 11 10 10 9 9 8 9 8 9 9 9 9 11
19 20 21 19 16 14 15 17 15 15 13 12 13 12 12 13 11 9 3 2 5 6 8 11 13 13 13 13 13 11 12 11 10 10 9 9 8 8 8 9 10 10 10 8
21 20 18 18 17 16 17 19 18 17 14 11 9 12 12 13 11 9 5 4 5 8 7 8 9 14 15 15 15 12 13 13 12 10 10 11 9 9 9 9 9 9 10 11
23 19 15 11 11 14 16 16 19 18 16 12 7 7 10 10 12 8 5 8 7 3 10 10 12 11 12 15 12 12 12 12 12 11 11 11 10 11 10 11 11 11 11 10
13 13 15 13 10 10 13 13 14 17 17 15 14 8 9 11 9 8 6 6 8 6 9 12 10 8 9 11 10 11 12 12 12 11 11 11 11 11 11 12 12 12 11 11
9 8 11 12 10 10 10 12 14 13 15 16 16 14 12 12 10 9 10 10 5 10 9 9 9 11 10 12 10 11 11 12 11 11 11 11 11 11 11 11 12 11 11 11
15 9 10 11 11 12 12 12 13 16 17 15 14 13 12 10 8 9 10 11 7 9 9 9 9 12 15 12 10 12 13 14 13 12 12 12 11 11 11 12 11 11 12 12
17 14 14 10 10 10 12 11 11 13 14 13 13 12 10 9 9 9 8 7 9 12 11 10 10 13 14 10 11 12 12 13 13 12 13 13 12 11 11 11 11 11 11 12
15 13 13 13 6 5 7 5 1 4 2 2 3 3 6 6 8 6 8 7 10 13 12 10 13 15 12 11 12 12 12 12 13 13 13 13 12 12 12 12 13 13 13 13
16 12 10 9 7 8 4 3 2 1 3 5 3 4 5 4 1 3 6 6 7 11 11 9 11 11 12 12 12 13 13 12 11 12 13 12 12 12 12 13 13 13 13 14
9 12 12 13 13 10 7 6 3 5 3 3 2 4 5 6 5 5 4 3 3 6 6 7 8 11 11 10 11 11 11 10 11 11 11 11 10 10 11 11 11 12 11 12
Wind_Direction
204 169 189 180 193 198 213 219 215 207 220 216 209 231 282 298 217 218 197 207 194 197 197 197 199 200 205 210 200 200 202 209 216 221 223 228 232 233 237 234 224 213 220 216
215 196 196 202 196 195 208 212 227 240 235 232 248 279 282 279 277 285 215 211 211 207 205 205 203 203 199 202 201 195 204 215 215 219 222 225 228 229 230 230 222 212 210 214
213 199 216 229 200 197 201 208 208 214 229 211 229 232 244 257 254 269 282 232 208 212 206 205 204 198 203 196 190 198 208 210 209 212 218 223 222 222 228 227 207 196 153 149
189 178 219 231 226 209 209 200 217 248 222 266 267 279 295 282 274 276 278 280 248 227 216 208 195 191 182 182 191 202 207 207 204 204 213 213 206 209 213 206 184 130 144 156
185 194 143 114 40 221 189 154 30 335 334 321 324 285 268 253 245 238 254 254 267 252 222 189 186 175 179 187 195 197 199 198 192 193 193 195 195 192 189 164 121 130 139 130
178 185 204 56 336 342 294 195 21 353 338 332 329 215 239 22 344 300 276 269 276 270 208 185 176 171 171 175 178 188 186 182 177 171 174 179 175 173 142 124 121 114 105 119
219 167 102 351 320 295 188 113 344 341 330 318 290 276 312 310 302 282 279 266 254 208 199 173 155 157 157 150 165 151 147 147 127 134 145 144 124 115 119 114 105 105 107 121
221 176 150 353 62 136 0 344 342 340 330 310 298 295 294 294 284 275 272 220 173 164 136 126 139 138 135 126 128 132 123 103 110 119 115 115 115 110 115 116 114 114 113 109
360 85 84 57 72 37 13 356 352 338 331 314 305 297 298 287 281 296 265 181 155 146 128 122 131 132 127 130 133 123 106 113 113 110 110 117 120 118 113 114 118 123 125 117
190 109 158 77 42 21 8 356 347 343 335 329 319 308 298 290 298 304 126 138 136 131 124 121 128 127 132 130 120 109 108 106 104 103 101 104 105 114 123 124 129 132 130 134
86 52 132 191 9 353 350 351 351 349 348 350 342 324 320 347 319 303 124 125 131 126 122 120 123 120 118 115 111 105 105 106 104 104 101 89 65 64 125 114 143 148 151 146
97 95 344 305 330 335 345 343 346 345 351 354 354 344 354 6 358 61 123 131 124 124 121 120 119 113 109 114 121 120 117 117 120 123 118 115 114 89 44 53 72 83 117 138
114 333 310 300 305 328 332 330 340 340 345 346 355 357 349 4 15 44 103 119 131 127 124 121 121 120 124 128 132 131 123 129 127 129 130 133 133 129 118 60 64 58 57 69
293 311 306 307 310 319 317 320 325 327 336 349 357 354 356 1 13 35 80 112 125 128 127 126 126 119 125 126 127 128 129 131 138 137 136 139 138 136 135 140 141 133 48 65
283 280 278 293 295 297 308 315 323 333 341 346 354 354 356 349 358 29 80 123 124 114 119 124 121 122 135 134 133 136 138 141 137 137 148 136 141 144 144 142 142 131 122 89
297 287 288 287 289 293 299 309 320 330 337 338 346 347 345 336 332 345 93 130 138 140 136 136 125 131 138 137 135 135 136 127 135 138 141 144 144 142 142 143 143 151 145 139
283 280 277 269 274 286 294 299 300 309 318 326 331 334 336 338 324 321 345 26 137 149 149 145 132 133 137 138 133 138 141 143 130 143 147 147 147 148 143 147 149 155 146 153
277 267 262 258 261 268 280 286 288 295 302 310 311 320 326 327 323 310 309 334 134 137 151 145 149 143 141 140 146 149 146 149 154 151 144 150 147 142 147 147 149 148 143 144
269 266 256 256 251 253 258 269 275 282 286 294 300 305 307 305 304 284 268 209 185 164 158 159 147 157 157 158 156 155 156 159 156 154 154 134 147 149 149 150 147 145 148 151
271 254 246 246 255 251 254 257 271 278 281 285 271 281 290 291 303 283 248 233 224 206 154 154 173 163 164 161 163 157 158 159 159 156 157 160 155 156 155 151 150 152 156 162
276 243 240 247 250 252 238 243 259 272 283 283 281 266 272 286 287 258 236 242 212 196 178 155 177 164 169 163 176 161 161 161 161 161 161 162 158 161 161 160 161 162 163 166
320 276 259 249 245 251 240 238 247 257 266 273 276 275 277 276 273 247 228 240 207 179 179 180 179 173 161 165 178 171 167 167 164 162 169 167 171 168 166 166 166 167 168 166
350 307 275 265 256 255 262 257 252 251 256 257 258 268 274 277 269 243 228 213 224 192 195 192 167 159 155 183 182 179 176 175 173 172 173 175 177 176 172 173 169 169 168 169
352 347 343 286 272 258 258 261 244 241 241 255 262 262 265 263 251 235 241 197 191 170 201 193 170 167 177 184 187 188 186 184 183 182 179 180 181 180 177 172 175 173 172 174
353 350 354 348 4 328 271 249 212 247 173 125 7 327 239 229 236 222 214 207 185 192 204 173 173 175 197 199 198 195 194 192 188 185 184 184 183 182 181 177 178 176 174 181
353 349 349 350 358 343 3 9 118 91 52 81 69 42 46 36 48 220 214 208 194 203 207 185 191 195 206 206 203 202 200 196 189 195 185 186 183 180 179 180 177 178 179 180
348 355 351 353 357 346 18 6 357 38 53 360 37 60 63 61 60 67 76 140 194 206 203 202 191 198 205 205 203 195 191 181 184 179 177 178 171 179 181 176 176 178 182 175